Time,TemperatureF,DewpointF,PressureIn,WindDirection,WindDirectionDegrees,WindSpeedMPH,WindSpeedGustMPH,Humidity,HourlyPrecipIn,Conditions,Clouds,dailyrainin,SoftwareType,DateUTC
2013-01-19 00:00:00,76.4,65.1,29.71,SSW,202,4.0,9.0,68,0.00,,,-99.99,WeatherLink 5.9.3,2013-01-18 13:00:00,
2013-01-19 00:06:00,75.8,64.9,29.71,South,191,2.0,8.0,69,0.00,,,0.00,Wunderground v.1.15,2013-01-18 13:06:00,
2013-01-19 00:11:00,75.7,64.8,29.72,ENE,65,1.0,2.0,69,0.00,,,0.00,Wunderground v.1.15,2013-01-18 13:11:00,
2013-01-19 00:16:00,75.4,64.5,29.72,South,179,4.0,4.0,69,0.00,,,0.00,Wunderground v.1.15,2013-01-18 13:16:00,
2013-01-19 00:22:00,75.2,64.7,29.73,South,179,5.0,7.0,70,0.00,,,0.00,Wunderground v.1.15,2013-01-18 13:22:00,
2013-01-19 00:27:00,75.0,64.5,29.74,SSE,163,6.0,7.0,70,0.00,,,0.00,Wunderground v.1.15,2013-01-18 13:27:00,
2013-01-19 00:32:00,74.9,64.5,29.74,SSW,207,4.0,4.0,70,0.00,,,0.00,Wunderground v.1.15,2013-01-18 13:32:00,
2013-01-19 00:38:00,74.7,64.3,29.74,SSE,154,3.0,4.0,70,0.00,,,0.00,Wunderground v.1.15,2013-01-18 13:38:00,
2013-01-19 00:43:00,74.6,64.2,29.74,South,169,2.0,12.0,70,0.00,,,0.00,Wunderground v.1.15,2013-01-18 13:43:00,
2013-01-19 00:48:00,74.5,64.5,29.74,West,268,6.0,12.0,71,0.00,,,0.00,Wunderground v.1.15,2013-01-18 13:48:00,
2013-01-19 00:54:00,74.4,64.4,29.74,SSE,153,4.0,4.0,71,0.00,,,0.00,Wunderground v.1.15,2013-01-18 13:54:00,
2013-01-19 00:59:00,74.3,64.3,29.74,SSE,161,0.0,6.0,71,0.00,,,0.00,Wunderground v.1.15,2013-01-18 13:59:00,
2013-01-19 01:04:00,74.2,64.2,29.74,SE,142,4.0,4.0,71,0.00,,,0.00,Wunderground v.1.15,2013-01-18 14:04:00,
2013-01-19 01:10:00,74.2,64.2,29.74,SSE,157,2.0,7.0,71,0.00,,,-99.99,WeatherLink 5.9.3,2013-01-18 14:10:00,
2013-01-19 01:16:00,73.8,63.8,29.74,South,188,4.0,6.0,71,0.00,,,0.00,Wunderground v.1.15,2013-01-18 14:16:00,
2013-01-19 01:21:00,73.6,63.6,29.74,SSW,210,1.0,3.0,71,0.00,,,0.00,Wunderground v.1.15,2013-01-18 14:21:00,
2013-01-19 01:26:00,73.6,63.6,29.74,South,184,6.0,6.0,71,0.00,,,0.00,Wunderground v.1.15,2013-01-18 14:26:00,
2013-01-19 01:32:00,73.5,63.5,29.74,SSE,164,2.0,3.0,71,0.00,,,0.00,Wunderground v.1.15,2013-01-18 14:32:00,
2013-01-19 01:37:00,73.5,63.5,29.75,SSE,165,1.0,3.0,71,0.00,,,0.00,Wunderground v.1.15,2013-01-18 14:37:00,
2013-01-19 01:43:00,73.3,63.3,29.75,South,188,2.0,2.0,71,0.00,,,0.00,Wunderground v.1.15,2013-01-18 14:43:00,
2013-01-19 01:48:00,73.3,63.3,29.75,NW,311,1.0,2.0,71,0.00,,,0.00,Wunderground v.1.15,2013-01-18 14:48:00,
2013-01-19 01:53:00,73.2,63.2,29.76,SE,137,1.0,2.0,71,0.00,,,0.00,Wunderground v.1.15,2013-01-18 14:53:00,
2013-01-19 01:58:00,73.2,62.8,29.76,West,269,0.0,2.0,70,0.00,,,0.00,Wunderground v.1.15,2013-01-18 14:58:00,
2013-01-19 02:03:00,73.3,62.9,29.76,WNW,284,0.0,3.0,70,0.00,,,0.00,Wunderground v.1.15,2013-01-18 15:03:00,
2013-01-19 02:08:00,73.3,62.9,29.76,WSW,241,0.0,5.0,70,0.00,,,0.00,Wunderground v.1.15,2013-01-18 15:08:00,
2013-01-19 02:13:00,73.3,62.5,29.76,SW,216,1.0,7.0,69,0.00,,,0.00,Wunderground v.1.15,2013-01-18 15:13:00,
2013-01-19 02:18:00,73.2,62.4,29.76,SE,138,1.0,7.0,69,0.00,,,0.00,Wunderground v.1.15,2013-01-18 15:18:00,
2013-01-19 02:23:00,73.2,62.4,29.77,SSW,193,3.0,3.0,69,0.00,,,0.00,Wunderground v.1.15,2013-01-18 15:23:00,
2013-01-19 02:28:00,73.2,62.4,29.77,WNW,300,1.0,5.0,69,0.00,,,0.00,Wunderground v.1.15,2013-01-18 15:28:00,
2013-01-19 02:33:00,73.1,62.3,29.77,SSE,156,1.0,7.0,69,0.00,,,0.00,Wunderground v.1.15,2013-01-18 15:33:00,
2013-01-19 02:38:00,73.1,62.3,29.77,ESE,122,2.0,7.0,69,0.00,,,0.00,Wunderground v.1.15,2013-01-18 15:38:00,
2013-01-19 02:43:00,73.0,62.2,29.77,South,184,1.0,5.0,69,0.00,,,0.00,Wunderground v.1.15,2013-01-18 15:43:00,
2013-01-19 02:48:00,73.0,62.2,29.77,South,176,1.0,5.0,69,0.00,,,0.00,Wunderground v.1.15,2013-01-18 15:48:00,
2013-01-19 02:53:00,72.9,62.1,29.77,SSW,201,2.0,4.0,69,0.00,,,0.00,Wunderground v.1.15,2013-01-18 15:53:00,
2013-01-19 02:58:00,72.8,62.0,29.77,SW,228,0.0,4.0,69,0.00,,,0.00,Wunderground v.1.15,2013-01-18 15:58:00,
2013-01-19 03:03:00,72.8,62.0,29.77,SE,127,1.0,4.0,69,0.00,,,0.00,Wunderground v.1.15,2013-01-18 16:03:00,
2013-01-19 03:08:00,72.7,61.9,29.78,WNW,292,0.0,4.0,69,0.00,,,0.00,Wunderground v.1.15,2013-01-18 16:08:00,
2013-01-19 03:13:00,72.6,61.8,29.78,SSE,150,0.0,2.0,69,0.00,,,0.00,Wunderground v.1.15,2013-01-18 16:13:00,
2013-01-19 03:18:00,72.6,61.8,29.78,South,191,1.0,4.0,69,0.00,,,0.00,Wunderground v.1.15,2013-01-18 16:18:00,
2013-01-19 03:23:00,72.5,61.7,29.78,South,181,0.0,2.0,69,0.00,,,0.00,Wunderground v.1.15,2013-01-18 16:23:00,
2013-01-19 03:28:00,72.4,61.7,29.78,SE,139,0.0,2.0,69,0.00,,,0.00,Wunderground v.1.15,2013-01-18 16:28:00,
2013-01-19 03:33:00,72.3,62.0,29.78,South,172,0.0,1.0,70,0.00,,,0.00,Wunderground v.1.15,2013-01-18 16:33:00,
2013-01-19 03:38:00,72.2,61.5,29.78,West,261,1.0,2.0,69,0.00,,,0.00,Wunderground v.1.15,2013-01-18 16:38:00,
2013-01-19 03:43:00,72.2,61.5,29.78,SSW,195,0.0,1.0,69,0.00,,,0.00,Wunderground v.1.15,2013-01-18 16:43:00,
2013-01-19 03:48:00,72.1,61.4,29.78,South,173,0.0,1.0,69,0.00,,,0.00,Wunderground v.1.15,2013-01-18 16:48:00,
2013-01-19 03:53:00,72.2,61.5,29.78,SE,139,0.0,3.0,69,0.00,,,0.00,Wunderground v.1.15,2013-01-18 16:53:00,
2013-01-19 03:58:00,72.2,61.5,29.78,SSW,200,1.0,3.0,69,0.00,,,0.00,Wunderground v.1.15,2013-01-18 16:58:00,
2013-01-19 04:03:00,72.1,61.4,29.78,SSE,164,1.0,2.0,69,0.00,,,0.00,Wunderground v.1.15,2013-01-18 17:03:00,
2013-01-19 04:09:00,72.1,61.0,29.79,SSE,167,0.0,2.0,68,0.00,,,0.00,Wunderground v.1.15,2013-01-18 17:09:00,
2013-01-19 04:14:00,72.0,61.3,29.79,SSE,167,0.0,1.0,69,0.00,,,0.00,Wunderground v.1.15,2013-01-18 17:14:00,
2013-01-19 04:19:00,71.9,60.8,29.79,South,188,1.0,2.0,68,0.00,,,0.00,Wunderground v.1.15,2013-01-18 17:19:00,
2013-01-19 04:24:00,71.9,61.2,29.79,South,179,1.0,2.0,69,0.00,,,0.00,Wunderground v.1.15,2013-01-18 17:24:00,
2013-01-19 04:29:00,71.8,61.1,29.80,South,176,0.0,2.0,69,0.00,,,0.00,Wunderground v.1.15,2013-01-18 17:29:00,
2013-01-19 04:34:00,71.7,61.0,29.80,SE,141,0.0,1.0,69,0.00,,,0.00,Wunderground v.1.15,2013-01-18 17:34:00,
2013-01-19 04:39:00,71.6,60.9,29.80,South,188,0.0,1.0,69,0.00,,,0.00,Wunderground v.1.15,2013-01-18 17:39:00,
2013-01-19 04:44:00,71.5,60.8,29.80,SSW,210,1.0,2.0,69,0.00,,,0.00,Wunderground v.1.15,2013-01-18 17:44:00,
2013-01-19 04:49:00,71.5,60.8,29.80,SSE,147,0.0,2.0,69,0.00,,,0.00,Wunderground v.1.15,2013-01-18 17:49:00,
2013-01-19 04:54:00,71.5,60.8,29.80,SSW,206,0.0,1.0,69,0.00,,,0.00,Wunderground v.1.15,2013-01-18 17:54:00,
2013-01-19 04:59:00,71.4,60.7,29.80,SSW,206,0.0,1.0,69,0.00,,,0.00,Wunderground v.1.15,2013-01-18 17:59:00,
2013-01-19 05:04:00,71.4,60.7,29.81,SSW,206,1.0,1.0,69,0.00,,,0.00,Wunderground v.1.15,2013-01-18 18:04:00,
2013-01-19 05:09:00,71.3,60.6,29.81,WNW,296,0.0,1.0,69,0.00,,,0.00,Wunderground v.1.15,2013-01-18 18:09:00,
2013-01-19 05:14:00,71.3,60.6,29.82,South,188,0.0,1.0,69,0.00,,,0.00,Wunderground v.1.15,2013-01-18 18:14:00,
2013-01-19 05:19:00,71.2,60.5,29.82,South,177,1.0,2.0,69,0.00,,,0.00,Wunderground v.1.15,2013-01-18 18:19:00,
2013-01-19 05:24:00,71.2,60.5,29.82,SSW,210,1.0,2.0,69,0.00,,,0.00,Wunderground v.1.15,2013-01-18 18:24:00,
2013-01-19 05:29:00,71.2,60.5,29.83,South,170,1.0,2.0,69,0.00,,,0.00,Wunderground v.1.15,2013-01-18 18:29:00,
2013-01-19 05:34:00,71.2,60.5,29.83,South,177,0.0,1.0,69,0.00,,,0.00,Wunderground v.1.15,2013-01-18 18:34:00,
2013-01-19 05:39:00,71.2,60.9,29.83,South,169,0.0,2.0,70,0.00,,,0.00,Wunderground v.1.15,2013-01-18 18:39:00,
2013-01-19 05:44:00,71.1,60.8,29.84,SSW,195,0.0,2.0,70,0.00,,,0.00,Wunderground v.1.15,2013-01-18 18:44:00,
2013-01-19 05:49:00,71.1,60.8,29.84,SSW,207,0.0,3.0,70,0.00,,,0.00,Wunderground v.1.15,2013-01-18 18:49:00,
2013-01-19 05:54:00,71.1,60.8,29.84,South,190,0.0,2.0,70,0.00,,,0.00,Wunderground v.1.15,2013-01-18 18:54:00,
2013-01-19 05:59:00,71.1,60.8,29.84,South,191,0.0,2.0,70,0.00,,,0.00,Wunderground v.1.15,2013-01-18 18:59:00,
2013-01-19 06:04:00,71.0,60.7,29.84,SSW,204,0.0,1.0,70,0.00,,,0.00,Wunderground v.1.15,2013-01-18 19:04:00,
2013-01-19 06:09:00,70.9,60.6,29.84,SSW,205,0.0,1.0,70,0.00,,,0.00,Wunderground v.1.15,2013-01-18 19:09:00,
2013-01-19 06:14:00,71.0,60.7,29.84,SSE,168,0.0,1.0,70,0.00,,,0.00,Wunderground v.1.15,2013-01-18 19:14:00,
2013-01-19 06:19:00,70.9,60.6,29.84,SSE,168,0.0,1.0,70,0.00,,,0.00,Wunderground v.1.15,2013-01-18 19:19:00,
2013-01-19 06:24:00,70.9,60.6,29.84,SSE,168,0.0,1.0,70,0.00,,,0.00,Wunderground v.1.15,2013-01-18 19:24:00,
2013-01-19 06:29:00,70.9,61.0,29.85,South,169,0.0,1.0,71,0.00,,,0.00,Wunderground v.1.15,2013-01-18 19:29:00,
2013-01-19 06:34:00,70.9,61.0,29.85,NW,309,0.0,2.0,71,0.00,,,0.00,Wunderground v.1.15,2013-01-18 19:34:00,
2013-01-19 06:40:00,71.0,61.1,29.85,South,169,1.0,2.0,71,0.00,,,0.00,Wunderground v.1.15,2013-01-18 19:40:00,
2013-01-19 06:45:00,71.1,61.2,29.85,SW,222,0.0,1.0,71,0.00,,,0.00,Wunderground v.1.15,2013-01-18 19:45:00,
2013-01-19 06:50:00,71.1,61.2,29.85,South,186,1.0,3.0,71,0.00,,,0.00,Wunderground v.1.15,2013-01-18 19:50:00,
2013-01-19 06:55:00,71.2,61.3,29.86,SSW,193,3.0,3.0,71,0.00,,,0.00,Wunderground v.1.15,2013-01-18 19:55:00,
2013-01-19 07:00:00,71.4,61.5,29.86,SW,217,0.0,3.0,71,0.00,,,0.00,Wunderground v.1.15,2013-01-18 20:00:00,
2013-01-19 07:05:00,71.6,61.7,29.86,South,186,1.0,2.0,71,0.00,,,0.00,Wunderground v.1.15,2013-01-18 20:05:00,
2013-01-19 07:10:00,71.9,62.0,29.86,South,174,0.0,2.0,71,0.00,,,0.00,Wunderground v.1.15,2013-01-18 20:10:00,
2013-01-19 07:15:00,72.1,61.8,29.86,South,172,1.0,2.0,70,0.00,,,0.00,Wunderground v.1.15,2013-01-18 20:15:00,
2013-01-19 07:20:00,72.4,62.1,29.86,SW,236,0.0,2.0,70,0.00,,,0.00,Wunderground v.1.15,2013-01-18 20:20:00,
2013-01-19 07:25:00,72.6,61.8,29.86,South,185,0.0,4.0,69,0.00,,,0.00,Wunderground v.1.15,2013-01-18 20:25:00,
2013-01-19 07:30:00,72.7,61.9,29.86,South,173,0.0,4.0,69,0.00,,,0.00,Wunderground v.1.15,2013-01-18 20:30:00,
2013-01-19 07:35:00,72.9,61.7,29.86,South,171,0.0,3.0,68,0.00,,,0.00,Wunderground v.1.15,2013-01-18 20:35:00,
2013-01-19 07:40:00,73.0,61.8,29.86,South,185,1.0,3.0,68,0.00,,,0.00,Wunderground v.1.15,2013-01-18 20:40:00,
2013-01-19 07:45:00,73.0,61.8,29.86,South,186,0.0,2.0,68,0.00,,,0.00,Wunderground v.1.15,2013-01-18 20:45:00,
2013-01-19 07:50:00,73.0,61.8,29.86,West,263,0.0,2.0,68,0.00,,,0.00,Wunderground v.1.15,2013-01-18 20:50:00,
2013-01-19 07:55:00,73.1,61.9,29.86,SSW,210,1.0,2.0,68,0.00,,,0.00,Wunderground v.1.15,2013-01-18 20:55:00,
2013-01-19 08:00:00,72.9,61.7,29.86,East,101,0.0,2.0,68,0.00,,,0.00,Wunderground v.1.15,2013-01-18 21:00:00,
2013-01-19 08:05:00,72.9,61.7,29.86,ESE,103,0.0,1.0,68,0.00,,,0.00,Wunderground v.1.15,2013-01-18 21:05:00,
2013-01-19 08:10:00,73.1,61.9,29.86,South,186,0.0,1.0,68,0.00,,,0.00,Wunderground v.1.15,2013-01-18 21:10:00,
2013-01-19 08:15:00,73.2,62.0,29.87,East,91,0.0,1.0,68,0.00,,,0.00,Wunderground v.1.15,2013-01-18 21:15:00,
2013-01-19 08:20:00,73.1,61.9,29.87,SE,143,0.0,1.0,68,0.00,,,0.00,Wunderground v.1.15,2013-01-18 21:20:00,
2013-01-19 08:25:00,73.1,61.9,29.87,ENE,65,0.0,2.0,68,0.00,,,0.00,Wunderground v.1.15,2013-01-18 21:25:00,
2013-01-19 08:30:00,73.0,62.2,29.87,SSW,210,2.0,2.0,69,0.00,,,0.00,Wunderground v.1.15,2013-01-18 21:30:00,
2013-01-19 08:35:00,72.9,62.1,29.87,South,185,0.0,4.0,69,0.00,,,0.00,Wunderground v.1.15,2013-01-18 21:35:00,
2013-01-19 08:40:00,72.8,62.0,29.87,SE,124,2.0,2.0,69,0.00,,,0.00,Wunderground v.1.15,2013-01-18 21:40:00,
2013-01-19 08:45:00,72.8,62.0,29.87,NE,44,1.0,2.0,69,0.00,,,0.00,Wunderground v.1.15,2013-01-18 21:45:00,
2013-01-19 08:50:00,72.9,62.1,29.87,SSE,165,1.0,1.0,69,0.00,,,0.00,Wunderground v.1.15,2013-01-18 21:50:00,
2013-01-19 08:55:00,72.9,62.1,29.87,SE,146,0.0,3.0,69,0.00,,,0.00,Wunderground v.1.15,2013-01-18 21:55:00,
2013-01-19 09:00:00,72.9,62.5,29.87,ESE,112,1.0,3.0,70,0.00,,,-99.99,WeatherLink 5.9.3,2013-01-18 22:00:00,
2013-01-19 09:06:00,72.9,62.1,29.87,South,188,2.0,2.0,69,0.00,,,0.00,Wunderground v.1.15,2013-01-18 22:06:00,
2013-01-19 09:11:00,72.9,62.1,29.87,South,180,1.0,2.0,69,0.00,,,-99.99,WeatherLink 5.9.3,2013-01-18 22:11:00,
2013-01-19 09:16:00,72.9,62.1,29.88,SE,125,2.0,3.0,69,0.00,,,0.00,Wunderground v.1.15,2013-01-18 22:16:00,
2013-01-19 09:21:00,72.9,62.1,29.88,SSE,162,0.0,1.0,69,0.00,,,0.00,Wunderground v.1.15,2013-01-18 22:21:00,
2013-01-19 09:26:00,73.1,62.3,29.88,SSW,206,2.0,4.0,69,0.00,,,0.00,Wunderground v.1.15,2013-01-18 22:26:00,
2013-01-19 09:31:00,72.8,62.0,29.88,SE,135,1.0,3.0,69,0.00,,,-99.99,WeatherLink 5.9.3,2013-01-18 22:31:00,
2013-01-19 09:36:00,73.3,62.1,29.88,ESE,122,0.0,2.0,68,0.00,,,0.00,Wunderground v.1.15,2013-01-18 22:36:00,
2013-01-19 09:41:00,73.3,62.1,29.88,SSE,165,1.0,2.0,68,0.00,,,0.00,Wunderground v.1.15,2013-01-18 22:41:00,
2013-01-19 09:46:00,73.3,62.1,29.88,SSW,202,1.0,3.0,68,0.00,,,0.00,Wunderground v.1.15,2013-01-18 22:46:00,
2013-01-19 09:51:00,73.3,62.1,29.88,SE,135,1.0,4.0,68,0.00,,,-99.99,WeatherLink 5.9.3,2013-01-18 22:51:00,
2013-01-19 09:56:00,73.3,62.1,29.88,SSE,167,2.0,4.0,68,0.00,,,0.00,Wunderground v.1.15,2013-01-18 22:56:00,
2013-01-19 10:01:00,73.5,62.3,29.88,East,101,1.0,2.0,68,0.00,,,0.00,Wunderground v.1.15,2013-01-18 23:01:00,
2013-01-19 10:06:00,73.6,62.8,29.88,SSE,147,2.0,3.0,69,0.00,,,0.00,Wunderground v.1.15,2013-01-18 23:06:00,
2013-01-19 10:11:00,73.6,62.4,29.88,SSW,209,1.0,2.0,68,0.00,,,0.00,Wunderground v.1.15,2013-01-18 23:11:00,
2013-01-19 10:16:00,73.6,62.4,29.88,SSE,158,2.0,4.0,68,0.00,,,0.00,Wunderground v.1.15,2013-01-18 23:16:00,
2013-01-19 10:21:00,73.5,62.3,29.89,SSE,162,1.0,4.0,68,0.00,,,0.00,Wunderground v.1.15,2013-01-18 23:21:00,
2013-01-19 10:26:00,73.5,62.3,29.89,ESE,121,0.0,6.0,68,0.00,,,0.00,Wunderground v.1.15,2013-01-18 23:26:00,
2013-01-19 10:31:00,73.8,62.6,29.89,SW,219,2.0,4.0,68,0.00,,,0.00,Wunderground v.1.15,2013-01-18 23:31:00,
2013-01-19 10:36:00,73.8,62.2,29.89,SE,139,3.0,6.0,67,0.00,,,0.00,Wunderground v.1.15,2013-01-18 23:36:00,
2013-01-19 10:41:00,73.7,62.1,29.89,SSE,158,4.0,4.0,67,0.00,,,0.00,Wunderground v.1.15,2013-01-18 23:41:00,
2013-01-19 10:46:00,73.7,62.1,29.89,South,180,2.0,5.0,67,0.00,,,0.00,Wunderground v.1.15,2013-01-18 23:46:00,
2013-01-19 10:51:00,73.7,62.1,29.89,SE,128,2.0,3.0,67,0.00,,,0.00,Wunderground v.1.15,2013-01-18 23:51:00,
2013-01-19 10:56:00,73.6,62.4,29.90,ESE,111,2.0,4.0,68,0.00,,,0.00,Wunderground v.1.15,2013-01-18 23:56:00,
2013-01-19 11:01:00,73.7,62.5,29.90,ESE,110,3.0,3.0,68,0.00,,,0.00,Wunderground v.1.15,2013-01-19 00:01:00,
2013-01-19 11:06:00,73.8,61.7,29.90,ESE,117,2.0,4.0,66,0.00,,,0.00,Wunderground v.1.15,2013-01-19 00:06:00,
2013-01-19 11:11:00,74.1,61.6,29.90,SE,132,4.0,5.0,65,0.00,,,0.00,Wunderground v.1.15,2013-01-19 00:11:00,
2013-01-19 11:16:00,74.2,61.7,29.89,ENE,72,1.0,6.0,65,0.00,,,0.00,Wunderground v.1.15,2013-01-19 00:16:00,
2013-01-19 11:21:00,74.0,61.0,29.89,South,184,4.0,5.0,64,0.00,,,0.00,Wunderground v.1.15,2013-01-19 00:21:00,
2013-01-19 11:26:00,74.0,61.5,29.90,SSE,167,6.0,7.0,65,0.00,,,0.00,Wunderground v.1.15,2013-01-19 00:26:00,
2013-01-19 11:31:00,74.3,61.8,29.90,SSE,165,3.0,5.0,65,0.00,,,0.00,Wunderground v.1.15,2013-01-19 00:31:00,
2013-01-19 11:36:00,74.5,62.4,29.89,ESE,104,3.0,6.0,66,0.00,,,0.00,Wunderground v.1.15,2013-01-19 00:36:00,
2013-01-19 11:41:00,74.9,61.9,29.89,SSE,164,5.0,6.0,64,0.00,,,0.00,Wunderground v.1.15,2013-01-19 00:41:00,
2013-01-19 11:47:00,75.0,62.0,29.89,South,190,3.0,6.0,64,0.00,,,0.00,Wunderground v.1.15,2013-01-19 00:47:00,
2013-01-19 11:52:00,75.1,61.6,29.89,ESE,110,3.0,6.0,63,0.00,,,0.00,Wunderground v.1.15,2013-01-19 00:52:00,
2013-01-19 11:57:00,74.6,60.7,29.90,SSE,158,3.0,7.0,62,0.00,,,0.00,Wunderground v.1.15,2013-01-19 00:57:00,
2013-01-19 12:02:00,74.3,61.3,29.90,SE,130,1.0,6.0,64,0.00,,,0.00,Wunderground v.1.15,2013-01-19 01:02:00,
2013-01-19 12:07:00,74.2,61.2,29.90,NE,38,3.0,7.0,64,0.00,,,0.00,Wunderground v.1.15,2013-01-19 01:07:00,
2013-01-19 12:12:00,74.3,61.8,29.90,ESE,120,3.0,5.0,65,0.00,,,0.00,Wunderground v.1.15,2013-01-19 01:12:00,
2013-01-19 12:17:00,74.4,61.9,29.90,East,98,2.0,5.0,65,0.00,,,0.00,Wunderground v.1.15,2013-01-19 01:17:00,
2013-01-19 12:22:00,74.1,61.6,29.90,SSE,153,1.0,5.0,65,0.00,,,0.00,Wunderground v.1.15,2013-01-19 01:22:00,
2013-01-19 12:27:00,74.1,61.6,29.90,SW,236,4.0,7.0,65,0.00,,,0.00,Wunderground v.1.15,2013-01-19 01:27:00,
2013-01-19 12:32:00,73.9,61.4,29.90,SE,141,2.0,3.0,65,0.00,,,0.00,Wunderground v.1.15,2013-01-19 01:32:00,
2013-01-19 12:37:00,73.8,61.3,29.90,SW,217,1.0,8.0,65,0.00,,,0.00,Wunderground v.1.15,2013-01-19 01:37:00,
2013-01-19 12:42:00,73.8,61.3,29.89,SE,132,1.0,5.0,65,0.00,,,0.00,Wunderground v.1.15,2013-01-19 01:42:00,
2013-01-19 12:47:00,73.8,61.3,29.89,SE,124,1.0,5.0,65,0.00,,,0.00,Wunderground v.1.15,2013-01-19 01:47:00,
2013-01-19 12:52:00,73.9,61.0,29.89,SSW,204,3.0,3.0,64,0.00,,,0.00,Wunderground v.1.15,2013-01-19 01:52:00,
2013-01-19 12:57:00,74.0,61.0,29.89,ENE,69,3.0,6.0,64,0.00,,,0.00,Wunderground v.1.15,2013-01-19 01:57:00,
2013-01-19 13:03:00,74.1,60.7,29.89,SSE,153,2.0,4.0,63,0.00,,,0.00,Wunderground v.1.15,2013-01-19 02:03:00,
2013-01-19 13:08:00,74.2,60.3,29.89,SSE,154,3.0,6.0,62,0.00,,,0.00,Wunderground v.1.15,2013-01-19 02:08:00,
2013-01-19 13:13:00,74.4,60.5,29.89,ENE,70,1.0,5.0,62,0.00,,,0.00,Wunderground v.1.15,2013-01-19 02:13:00,
2013-01-19 13:18:00,74.5,60.6,29.89,SSE,150,2.0,6.0,62,0.00,,,0.00,Wunderground v.1.15,2013-01-19 02:18:00,
2013-01-19 13:23:00,74.5,60.2,29.89,East,84,4.0,4.0,61,0.00,,,0.00,Wunderground v.1.15,2013-01-19 02:23:00,
2013-01-19 13:28:00,74.8,59.5,29.89,ESE,104,3.0,4.0,59,0.00,,,0.00,Wunderground v.1.15,2013-01-19 02:28:00,
2013-01-19 13:33:00,75.2,59.9,29.89,NE,41,2.0,5.0,59,0.00,,,0.00,Wunderground v.1.15,2013-01-19 02:33:00,
2013-01-19 13:38:00,75.6,60.3,29.89,ESE,116,1.0,5.0,59,0.00,,,0.00,Wunderground v.1.15,2013-01-19 02:38:00,
2013-01-19 13:43:00,76.2,60.8,29.89,SSE,147,2.0,6.0,59,0.00,,,0.00,Wunderground v.1.15,2013-01-19 02:43:00,
2013-01-19 13:48:00,76.2,60.3,29.89,East,89,1.0,6.0,58,0.00,,,0.00,Wunderground v.1.15,2013-01-19 02:48:00,
2013-01-19 13:53:00,76.6,60.2,29.89,ENE,59,1.0,5.0,57,0.00,,,0.00,Wunderground v.1.15,2013-01-19 02:53:00,
2013-01-19 13:58:00,76.8,59.9,29.89,East,92,2.0,5.0,56,0.00,,,0.00,Wunderground v.1.15,2013-01-19 02:58:00,
2013-01-19 14:03:00,76.4,59.5,29.89,NE,41,0.0,7.0,56,0.00,,,0.00,Wunderground v.1.15,2013-01-19 03:03:00,
2013-01-19 14:08:00,76.3,59.9,29.89,NE,34,3.0,7.0,57,0.00,,,0.00,Wunderground v.1.15,2013-01-19 03:08:00,
2013-01-19 14:13:00,76.5,60.6,29.89,ESE,115,3.0,6.0,58,0.00,,,0.00,Wunderground v.1.15,2013-01-19 03:13:00,
2013-01-19 14:18:00,76.6,60.2,29.89,East,79,1.0,6.0,57,0.00,,,0.00,Wunderground v.1.15,2013-01-19 03:18:00,
2013-01-19 14:23:00,76.5,59.6,29.89,NNE,32,3.0,7.0,56,0.00,,,0.00,Wunderground v.1.15,2013-01-19 03:23:00,
2013-01-19 14:28:00,76.1,59.8,29.89,SE,141,3.0,7.0,57,0.00,,,0.00,Wunderground v.1.15,2013-01-19 03:28:00,
2013-01-19 14:33:00,76.2,59.9,29.89,South,188,4.0,6.0,57,0.00,,,0.00,Wunderground v.1.15,2013-01-19 03:33:00,
2013-01-19 14:39:00,75.9,59.6,29.89,NE,46,2.0,7.0,57,0.00,,,0.00,Wunderground v.1.15,2013-01-19 03:39:00,
2013-01-19 14:44:00,76.0,60.2,29.89,East,101,1.0,8.0,58,0.00,,,0.00,Wunderground v.1.15,2013-01-19 03:44:00,
2013-01-19 14:49:00,76.2,59.9,29.89,NE,55,1.0,8.0,57,0.00,,,0.00,Wunderground v.1.15,2013-01-19 03:49:00,
2013-01-19 14:54:00,76.1,59.8,29.89,WSW,250,7.0,8.0,57,0.00,,,0.00,Wunderground v.1.15,2013-01-19 03:54:00,
2013-01-19 14:59:00,75.7,59.9,29.89,South,172,4.0,9.0,58,0.00,,,0.00,Wunderground v.1.15,2013-01-19 03:59:00,
2013-01-19 15:04:00,75.2,61.7,29.89,ESE,118,4.0,8.0,63,0.00,,,0.00,Wunderground v.1.15,2013-01-19 04:04:00,
2013-01-19 15:09:00,74.6,61.6,29.89,South,189,3.0,8.0,64,0.00,,,0.00,Wunderground v.1.15,2013-01-19 04:09:00,
2013-01-19 15:14:00,74.2,60.3,29.88,ESE,108,3.0,7.0,62,0.00,,,0.00,Wunderground v.1.15,2013-01-19 04:14:00,
2013-01-19 15:19:00,74.0,60.2,29.89,East,100,5.0,7.0,62,0.00,,,0.00,Wunderground v.1.15,2013-01-19 04:19:00,
2013-01-19 15:24:00,73.9,60.1,29.89,ESE,104,3.0,6.0,62,0.00,,,0.00,Wunderground v.1.15,2013-01-19 04:24:00,
2013-01-19 15:29:00,73.9,60.1,29.89,SE,129,2.0,7.0,62,0.00,,,0.00,Wunderground v.1.15,2013-01-19 04:29:00,
2013-01-19 15:34:00,74.0,60.6,29.89,East,92,0.0,6.0,63,0.00,,,0.00,Wunderground v.1.15,2013-01-19 04:34:00,
2013-01-19 15:39:00,74.0,60.6,29.89,SSE,147,3.0,6.0,63,0.00,,,0.00,Wunderground v.1.15,2013-01-19 04:39:00,
2013-01-19 15:44:00,73.7,60.3,29.89,SE,132,6.0,8.0,63,0.00,,,0.00,Wunderground v.1.15,2013-01-19 04:44:00,
2013-01-19 15:49:00,73.5,60.6,29.89,SSE,165,3.0,9.0,64,0.00,,,0.00,Wunderground v.1.15,2013-01-19 04:49:00,
2013-01-19 15:54:00,73.4,60.5,29.89,South,172,2.0,7.0,64,0.00,,,0.00,Wunderground v.1.15,2013-01-19 04:54:00,
2013-01-19 15:59:00,73.4,60.9,29.89,SE,146,4.0,7.0,65,0.00,,,0.00,Wunderground v.1.15,2013-01-19 04:59:00,
2013-01-19 16:01:00,73.4,60.5,29.89,SSE,157,4.0,10.0,64,0.00,,,-99.99,WeatherLink 5.9.3,2013-01-19 05:01:00,
2013-01-19 16:03:00,73.3,60.8,29.89,NNE,27,2.0,4.0,65,0.00,,,0.00,Wunderground v.1.15,2013-01-19 05:03:00,
2013-01-19 16:08:00,73.1,61.1,29.89,ESE,111,1.0,7.0,66,0.00,,,0.00,Wunderground v.1.15,2013-01-19 05:08:00,
2013-01-19 16:13:00,73.1,61.1,29.89,SSE,165,2.0,4.0,66,0.00,,,0.00,Wunderground v.1.15,2013-01-19 05:13:00,
2013-01-19 16:18:00,72.9,60.9,29.90,SSE,166,4.0,7.0,66,0.00,,,0.00,Wunderground v.1.15,2013-01-19 05:18:00,
2013-01-19 16:23:00,72.8,61.2,29.90,SSW,200,4.0,8.0,67,0.00,,,0.00,Wunderground v.1.15,2013-01-19 05:23:00,
2013-01-19 16:28:00,72.8,61.2,29.90,SE,139,2.0,8.0,67,0.00,,,0.00,Wunderground v.1.15,2013-01-19 05:28:00,
2013-01-19 16:33:00,72.7,61.1,29.90,SSE,152,2.0,6.0,67,0.00,,,0.00,Wunderground v.1.15,2013-01-19 05:33:00,
2013-01-19 16:38:00,72.6,61.0,29.90,SE,145,5.0,7.0,67,0.00,,,0.00,Wunderground v.1.15,2013-01-19 05:38:00,
2013-01-19 16:43:00,72.5,60.9,29.90,ESE,112,3.0,6.0,67,0.00,,,0.00,Wunderground v.1.15,2013-01-19 05:43:00,
2013-01-19 16:48:00,72.3,60.7,29.90,SSE,160,3.0,6.0,67,0.00,,,0.00,Wunderground v.1.15,2013-01-19 05:48:00,
2013-01-19 16:53:00,72.4,61.2,29.90,SE,146,2.0,6.0,68,0.00,,,0.00,Wunderground v.1.15,2013-01-19 05:53:00,
2013-01-19 16:58:00,72.4,60.8,29.90,SSE,162,2.0,6.0,67,0.00,,,0.00,Wunderground v.1.15,2013-01-19 05:58:00,
2013-01-19 17:03:00,72.2,60.6,29.91,WSW,257,2.0,3.0,67,0.00,,,0.00,Wunderground v.1.15,2013-01-19 06:03:00,
2013-01-19 17:08:00,72.1,60.5,29.91,SSE,157,4.0,5.0,67,0.00,,,0.00,Wunderground v.1.15,2013-01-19 06:08:00,
2013-01-19 17:13:00,71.8,60.7,29.91,SSW,199,1.0,3.0,68,0.00,,,0.00,Wunderground v.1.15,2013-01-19 06:13:00,
2013-01-19 17:18:00,71.5,60.0,29.91,West,266,1.0,6.0,67,0.00,,,0.00,Wunderground v.1.15,2013-01-19 06:18:00,
2013-01-19 17:23:00,71.3,59.8,29.90,SE,132,3.0,5.0,67,0.00,,,0.00,Wunderground v.1.15,2013-01-19 06:23:00,
2013-01-19 17:28:00,71.1,59.6,29.91,South,191,0.0,6.0,67,0.00,,,0.00,Wunderground v.1.15,2013-01-19 06:28:00,
2013-01-19 17:34:00,70.9,59.4,29.91,South,188,2.0,3.0,67,0.00,,,0.00,Wunderground v.1.15,2013-01-19 06:34:00,
2013-01-19 17:39:00,70.8,59.3,29.91,South,179,1.0,5.0,67,0.00,,,0.00,Wunderground v.1.15,2013-01-19 06:39:00,
2013-01-19 17:44:00,70.7,59.6,29.92,SSE,150,3.0,5.0,68,0.00,,,0.00,Wunderground v.1.15,2013-01-19 06:44:00,
2013-01-19 17:49:00,70.3,59.6,29.92,SSE,168,4.0,6.0,69,0.00,,,0.00,Wunderground v.1.15,2013-01-19 06:49:00,
2013-01-19 17:54:00,70.1,59.9,29.92,SSE,165,1.0,3.0,70,0.00,,,0.00,Wunderground v.1.15,2013-01-19 06:54:00,
2013-01-19 17:59:00,70.0,59.8,29.93,SSE,156,1.0,4.0,70,0.00,,,0.00,Wunderground v.1.15,2013-01-19 06:59:00,
2013-01-19 18:04:00,70.0,60.2,29.93,South,174,0.0,2.0,71,0.00,,,0.00,Wunderground v.1.15,2013-01-19 07:04:00,
2013-01-19 18:09:00,70.0,60.2,29.93,SSE,153,1.0,3.0,71,0.00,,,0.00,Wunderground v.1.15,2013-01-19 07:09:00,
2013-01-19 18:14:00,69.9,60.5,29.93,ENE,73,1.0,2.0,72,0.00,,,0.00,Wunderground v.1.15,2013-01-19 07:14:00,
2013-01-19 18:19:00,69.9,60.5,29.94,SE,131,1.0,3.0,72,0.00,,,0.00,Wunderground v.1.15,2013-01-19 07:19:00,
2013-01-19 18:24:00,69.8,60.8,29.94,East,96,2.0,3.0,73,0.00,,,0.00,Wunderground v.1.15,2013-01-19 07:24:00,
2013-01-19 18:29:00,69.6,60.9,29.94,ESE,122,0.0,4.0,74,0.00,,,0.00,Wunderground v.1.15,2013-01-19 07:29:00,
2013-01-19 18:34:00,69.5,61.2,29.94,South,174,1.0,2.0,75,0.00,,,0.00,Wunderground v.1.15,2013-01-19 07:34:00,
2013-01-19 18:39:00,69.4,61.1,29.95,SW,223,1.0,3.0,75,0.00,,,0.00,Wunderground v.1.15,2013-01-19 07:39:00,
2013-01-19 18:44:00,69.2,61.7,29.95,SSE,147,2.0,5.0,77,0.00,,,0.00,Wunderground v.1.15,2013-01-19 07:44:00,
2013-01-19 18:49:00,69.0,61.5,29.95,SSE,160,2.0,6.0,77,0.00,,,0.00,Wunderground v.1.15,2013-01-19 07:49:00,
2013-01-19 18:54:00,68.8,61.7,29.95,SE,133,3.0,5.0,78,0.00,,,0.00,Wunderground v.1.15,2013-01-19 07:54:00,
2013-01-19 18:59:00,68.7,61.6,29.95,SE,140,3.0,5.0,78,0.00,,,0.00,Wunderground v.1.15,2013-01-19 07:59:00,
2013-01-19 19:04:00,68.6,61.8,29.95,SSE,157,0.0,4.0,79,0.00,,,0.00,Wunderground v.1.15,2013-01-19 08:04:00,
2013-01-19 19:09:00,68.3,61.9,29.96,SE,131,0.0,4.0,80,0.00,,,0.00,Wunderground v.1.15,2013-01-19 08:09:00,
2013-01-19 19:14:00,67.9,62.2,29.96,SSE,153,1.0,4.0,82,0.00,,,0.00,Wunderground v.1.15,2013-01-19 08:14:00,
2013-01-19 19:19:00,67.6,62.3,29.96,SSE,168,0.0,4.0,83,0.00,,,0.00,Wunderground v.1.15,2013-01-19 08:19:00,
2013-01-19 19:24:00,67.3,62.3,29.97,SSE,167,0.0,1.0,84,0.00,,,0.00,Wunderground v.1.15,2013-01-19 08:24:00,
2013-01-19 19:29:00,67.1,62.4,29.97,South,181,0.0,1.0,85,0.00,,,0.00,Wunderground v.1.15,2013-01-19 08:29:00,
2013-01-19 19:34:00,66.9,62.2,29.98,WSW,243,0.0,1.0,85,0.00,,,0.00,Wunderground v.1.15,2013-01-19 08:34:00,
2013-01-19 19:39:00,66.7,62.4,29.98,West,278,0.0,1.0,86,0.00,,,0.00,Wunderground v.1.15,2013-01-19 08:39:00,
2013-01-19 19:44:00,66.4,62.4,29.98,West,271,1.0,1.0,87,0.00,,,0.00,Wunderground v.1.15,2013-01-19 08:44:00,
2013-01-19 19:49:00,66.2,62.2,29.98,SW,219,1.0,2.0,87,0.00,,,0.00,Wunderground v.1.15,2013-01-19 08:49:00,
2013-01-19 19:54:00,65.8,61.8,29.98,South,188,0.0,2.0,87,0.00,,,0.00,Wunderground v.1.15,2013-01-19 08:54:00,
2013-01-19 19:59:00,65.6,61.9,29.98,SSW,206,0.0,2.0,88,0.00,,,0.00,Wunderground v.1.15,2013-01-19 08:59:00,
2013-01-19 20:04:00,65.4,61.8,29.98,South,179,0.0,2.0,88,0.00,,,0.00,Wunderground v.1.15,2013-01-19 09:04:00,
2013-01-19 20:09:00,65.3,61.7,29.98,South,179,1.0,2.0,88,0.00,,,0.00,Wunderground v.1.15,2013-01-19 09:09:00,
2013-01-19 20:14:00,65.2,61.6,29.98,SSE,152,0.0,1.0,88,0.00,,,0.00,Wunderground v.1.15,2013-01-19 09:14:00,
2013-01-19 20:19:00,65.2,61.6,29.98,SSE,155,0.0,3.0,88,0.00,,,0.00,Wunderground v.1.15,2013-01-19 09:19:00,
2013-01-19 20:24:00,65.2,61.9,29.98,South,180,0.0,3.0,89,0.00,,,0.00,Wunderground v.1.15,2013-01-19 09:24:00,
2013-01-19 20:29:00,65.2,61.9,29.98,South,169,1.0,3.0,89,0.00,,,0.00,Wunderground v.1.15,2013-01-19 09:29:00,
2013-01-19 20:34:00,65.2,61.9,29.98,SSW,204,0.0,3.0,89,0.00,,,0.00,Wunderground v.1.15,2013-01-19 09:34:00,
2013-01-19 20:39:00,65.1,61.8,29.98,South,174,1.0,3.0,89,0.00,,,0.00,Wunderground v.1.15,2013-01-19 09:39:00,
2013-01-19 20:44:00,65.1,61.8,29.98,SW,216,0.0,2.0,89,0.00,,,0.00,Wunderground v.1.15,2013-01-19 09:44:00,
2013-01-19 20:49:00,65.1,61.8,29.98,SSW,212,0.0,2.0,89,0.00,,,0.00,Wunderground v.1.15,2013-01-19 09:49:00,
2013-01-19 20:54:00,65.2,61.9,29.98,SE,138,0.0,3.0,89,0.00,,,0.00,Wunderground v.1.15,2013-01-19 09:54:00,
2013-01-19 20:59:00,65.3,62.0,29.98,SSE,153,2.0,3.0,89,0.00,,,0.00,Wunderground v.1.15,2013-01-19 09:59:00,
2013-01-19 21:05:00,65.3,61.7,29.97,NE,56,0.0,2.0,88,0.00,,,0.00,Wunderground v.1.15,2013-01-19 10:05:00,
2013-01-19 21:10:00,65.4,61.4,29.98,SSW,200,0.0,3.0,87,0.00,,,0.00,Wunderground v.1.15,2013-01-19 10:10:00,
2013-01-19 21:15:00,65.3,61.0,29.97,East,87,1.0,2.0,86,0.00,,,0.00,Wunderground v.1.15,2013-01-19 10:15:00,
2013-01-19 21:20:00,65.4,61.1,29.97,NE,45,0.0,3.0,86,0.00,,,0.00,Wunderground v.1.15,2013-01-19 10:20:00,
2013-01-19 21:25:00,65.4,60.8,29.97,NE,55,1.0,1.0,85,0.00,,,0.00,Wunderground v.1.15,2013-01-19 10:25:00,
2013-01-19 21:30:00,65.4,60.8,29.98,NE,34,1.0,1.0,85,0.00,,,0.00,Wunderground v.1.15,2013-01-19 10:30:00,
2013-01-19 21:35:00,65.4,60.8,29.97,NNE,32,0.0,2.0,85,0.00,,,0.00,Wunderground v.1.15,2013-01-19 10:35:00,
2013-01-19 21:40:00,65.4,61.1,29.98,NE,55,0.0,2.0,86,0.00,,,0.01,Wunderground v.1.15,2013-01-19 10:40:00,
2013-01-19 21:45:00,65.2,60.9,29.98,NE,41,1.0,1.0,86,0.00,,,0.01,Wunderground v.1.15,2013-01-19 10:45:00,
2013-01-19 21:50:00,65.1,61.1,29.98,NE,51,1.0,2.0,87,0.00,,,0.01,Wunderground v.1.15,2013-01-19 10:50:00,
2013-01-19 21:55:00,64.9,60.9,29.98,East,83,0.0,1.0,87,0.00,,,0.01,Wunderground v.1.15,2013-01-19 10:55:00,
2013-01-19 22:00:00,64.9,60.9,29.98,NNE,32,0.0,1.0,87,0.00,,,0.01,Wunderground v.1.15,2013-01-19 11:00:00,
2013-01-19 22:05:00,64.8,61.2,29.98,NNE,32,0.0,0.0,88,0.00,,,0.01,Wunderground v.1.15,2013-01-19 11:05:00,
2013-01-19 22:10:00,64.7,61.1,29.99,NNE,32,0.0,0.0,88,0.00,,,0.01,Wunderground v.1.15,2013-01-19 11:10:00,
2013-01-19 23:10:00,64.7,61.1,29.99,North,-999,0.0,0.0,88,0.01,,,-99.99,WeatherLink 5.9.3,2013-01-19 12:10:00,
2013-01-19 23:15:00,64.8,61.5,29.99,ENE,67,0.0,1.0,89,0.01,,,-99.99,WeatherLink 5.9.3,2013-01-19 12:15:00,
2013-01-19 23:20:00,64.8,61.5,29.99,North,-999,0.0,0.0,89,0.01,,,-99.99,WeatherLink 5.9.3,2013-01-19 12:20:00,
2013-01-19 23:25:00,64.8,61.5,29.99,North,-999,0.0,0.0,89,0.02,,,-99.99,WeatherLink 5.9.3,2013-01-19 12:25:00,
2013-01-19 23:30:00,64.9,61.9,29.99,North,-999,0.0,0.0,90,0.02,,,-99.99,WeatherLink 5.9.3,2013-01-19 12:30:00,
2013-01-19 23:35:00,64.9,61.9,29.99,North,-999,0.0,0.0,90,0.02,,,-99.99,WeatherLink 5.9.3,2013-01-19 12:35:00,
2013-01-19 23:40:00,64.9,62.2,29.99,South,180,0.0,1.0,91,0.02,,,-99.99,WeatherLink 5.9.3,2013-01-19 12:40:00,
2013-01-19 23:47:00,64.6,62.5,29.99,WSW,248,0.0,1.0,93,0.00,,,0.03,Wunderground v.1.15,2013-01-19 12:47:00,
2013-01-19 23:48:00,64.6,62.5,29.99,WSW,245,0.0,1.0,93,0.00,,,0.03,Wunderground v.1.15,2013-01-19 12:48:00,
2013-01-19 23:53:00,64.7,62.6,29.99,WSW,257,0.0,0.0,93,0.00,,,0.03,Wunderground v.1.15,2013-01-19 12:53:00,
2013-01-19 23:58:00,64.7,62.6,29.99,WSW,252,0.0,1.0,93,0.00,,,0.03,Wunderground v.1.15,2013-01-19 12:58:00,